Beatrice, NE

7:34 AM CDT on September 24, 2017 (GMT -0500)
Beatrice Municipal

Weather History for KBIE - December, 2008

Change the Weather History Date:

Thursday, December 25, 2008

  Actual Average Record
Temperature  
Mean Temperature 26 °F -  
Max Temperature 41 °F 36 °F 62 °F (2016)
Min Temperature 12 °F 14 °F -16 °F (1983)
Degree Days  
Heating Degree Days 40    
Moisture  
Dew Point 20 °F    
Average Humidity 77    
Maximum Humidity 86    
Minimum Humidity 69    
Precipitation  
Precipitation 0.00 in - - ()
Sea Level Pressure  
Sea Level Pressure 29.99 in    
Wind  
Wind Speed 11 mph (SSE)    
Max Wind Speed 20 mph    
Max Gust Speed 29 mph    
Visibility 10 miles    
Events      
Averages and records for this station are not official NWS values.
T = Trace of Precipitation, MM = Missing Value Source: NWS Daily Summary

Daily Weather History Graph

Daily Weather History Graph

Search for Another Location

Airport or City:

Trip Planner

Search our weather history database for the weather conditions in past years. The results will help you decide how hot, cold, wet, or windy it might be!

Date:

Astronomy

Dec. 25, 2008 Rise Set
Actual Time 7:48 AM CST 5:06 PM CST
Civil Twilight 7:17 AM CST 5:37 PM CST
Nautical Twilight 6:43 AM CST 6:11 PM CST
Astronomical Twilight 6:10 AM CST 6:44 PM CST
Moon 6:32 AM CST (12/25) 3:26 PM CST (12/25)
Length of Visible Light 10h 19m
Length of Day
9h 18m
Waning Crescent, 3% of the Moon is Illuminated
Dec 25
Waning Crescent
Dec 27
New
Jan 4
First Quarter
Jan 10
Full
Jan 17
Last Quarter

Hourly Weather History & Observations

Time (CST) Temp. Windchill Dew Point Humidity Pressure Visibility Wind Dir Wind Speed Gust Speed Precip Events Conditions
12:10 AM 12.2 °F 1.7 °F 5.0 °F 73% 30.20 in 10.0 mi SSE 6.9 mph - N/A   Clear
12:30 AM 12.2 °F 1.7 °F 5.0 °F 73% 30.20 in 10.0 mi SSE 6.9 mph - N/A   Clear
12:50 AM 12.2 °F 1.7 °F 5.0 °F 73% 30.20 in 10.0 mi South 6.9 mph - N/A   Clear
1:10 AM 12.2 °F 2.9 °F 6.8 °F 79% 30.20 in 10.0 mi SSE 5.8 mph - N/A   Clear
1:30 AM 12.2 °F 4.3 °F 6.8 °F 79% 30.19 in 10.0 mi SE 4.6 mph - N/A   Clear
1:50 AM 12.2 °F 1.7 °F 6.8 °F 79% 30.18 in 10.0 mi SSE 6.9 mph - N/A   Clear
2:10 AM 12.2 °F 1.7 °F 6.8 °F 79% 30.17 in 10.0 mi SE 6.9 mph - N/A   Clear
2:30 AM 12.2 °F 0.7 °F 8.6 °F 85% 30.17 in 10.0 mi SSE 8.1 mph - N/A   Clear
2:50 AM 12.2 °F 1.7 °F 8.6 °F 85% 30.17 in 10.0 mi SSE 6.9 mph - N/A   Clear
3:10 AM 14.0 °F 3.9 °F 8.6 °F 79% 30.16 in 10.0 mi SSE 6.9 mph - N/A   Clear
3:30 AM 14.0 °F 2.9 °F 10.4 °F 86% 30.16 in 10.0 mi SSE 8.1 mph - N/A   Clear
3:50 AM 15.8 °F 3.4 °F 12.2 °F 86% 30.15 in 10.0 mi SSE 10.4 mph - N/A   Clear
4:10 AM 15.8 °F 4.2 °F 12.2 °F 86% 30.15 in 10.0 mi SSE 9.2 mph - N/A   Clear
4:30 AM 17.6 °F 5.0 °F 12.2 °F 79% 30.14 in 10.0 mi SSE 11.5 mph - N/A   Clear
4:50 AM 17.6 °F 6.4 °F 12.2 °F 79% 30.14 in 10.0 mi SSE 9.2 mph - N/A   Clear
5:10 AM 19.4 °F 7.9 °F 14.0 °F 80% 30.13 in 10.0 mi SSE 10.4 mph - N/A   Scattered Clouds
5:30 AM 17.6 °F 6.4 °F 14.0 °F 86% 30.12 in 10.0 mi SSE 9.2 mph - N/A   Scattered Clouds
5:50 AM 19.4 °F 7.9 °F 14.0 °F 80% 30.10 in 10.0 mi SE 10.4 mph - N/A   Clear
6:10 AM 19.4 °F 8.6 °F 14.0 °F 80% 30.09 in 10.0 mi SE 9.2 mph - N/A   Clear
6:30 AM 19.4 °F 8.6 °F 15.8 °F 86% 30.09 in 10.0 mi SSE 9.2 mph - N/A   Clear
6:50 AM 21.2 °F 10.1 °F 17.6 °F 86% 30.08 in 10.0 mi SSE 10.4 mph - N/A   Clear
7:10 AM 23.0 °F 11.7 °F 17.6 °F 80% 30.06 in 10.0 mi SSE 11.5 mph - N/A   Clear
7:30 AM 23.0 °F 11.7 °F 19.4 °F 86% 30.06 in 10.0 mi SSE 11.5 mph - N/A   Clear
7:50 AM 26.6 °F 15.2 °F 19.4 °F 74% 30.05 in 10.0 mi SSE 13.8 mph - N/A   Clear
8:10 AM 26.6 °F 15.2 °F 19.4 °F 74% 30.05 in 10.0 mi SSE 13.8 mph - N/A   Clear
8:30 AM 28.4 °F 17.0 °F 21.2 °F 74% 30.04 in 10.0 mi SSE 15.0 mph - N/A   Clear
8:50 AM 28.4 °F 17.0 °F 21.2 °F 74% 30.04 in 10.0 mi SSE 15.0 mph - N/A   Clear
9:10 AM 28.4 °F 17.5 °F 21.2 °F 74% 30.04 in 10.0 mi SSE 13.8 mph 21.9 mph N/A   Clear
9:30 AM 28.4 °F 16.6 °F 21.2 °F 74% 30.03 in 10.0 mi SSE 16.1 mph 24.2 mph N/A   Scattered Clouds
9:50 AM 28.4 °F 16.6 °F 21.2 °F 74% 30.03 in 10.0 mi SSE 16.1 mph 21.9 mph N/A   Scattered Clouds
10:10 AM 30.2 °F 18.1 °F 23.0 °F 75% 30.03 in 10.0 mi SSE 18.4 mph 26.5 mph N/A   Clear
10:30 AM 30.2 °F 17.8 °F 23.0 °F 75% 30.03 in 10.0 mi SSE 19.6 mph 26.5 mph N/A   Clear
10:50 AM 30.2 °F 18.9 °F 23.0 °F 75% 30.01 in 10.0 mi SSE 16.1 mph 25.3 mph N/A   Clear
11:10 AM 32.0 °F 20.1 °F 23.0 °F 69% 30.00 in 10.0 mi SSE 19.6 mph 28.8 mph N/A   Clear
11:30 AM 32.0 °F 21.2 °F 24.8 °F 75% 29.99 in 10.0 mi SSE 16.1 mph 24.2 mph N/A   Scattered Clouds
11:50 AM 32.0 °F 21.2 °F 24.8 °F 75% 29.97 in 10.0 mi SSE 16.1 mph 23.0 mph N/A   Mostly Cloudy
12:10 PM 32.0 °F 20.5 °F 24.8 °F 75% 29.94 in 10.0 mi SSE 18.4 mph 25.3 mph N/A   Overcast
12:30 PM 32.0 °F 20.1 °F 24.8 °F 75% 29.92 in 10.0 mi SSE 19.6 mph 24.2 mph N/A   Scattered Clouds
12:50 PM 33.8 °F 23.5 °F 26.6 °F 75% 29.89 in 10.0 mi SSE 16.1 mph 24.2 mph N/A   Scattered Clouds
1:10 PM 33.8 °F 23.2 °F 26.6 °F 75% 29.87 in 10.0 mi SSE 17.3 mph 24.2 mph N/A   Scattered Clouds
1:30 PM 33.8 °F 23.9 °F 26.6 °F 75% 29.86 in 10.0 mi SSE 15.0 mph 20.7 mph N/A   Clear
1:50 PM 35.6 °F 25.9 °F 26.6 °F 70% 29.84 in 10.0 mi SSE 16.1 mph 23.0 mph N/A   Clear
2:10 PM 35.6 °F 26.2 °F 28.4 °F 75% 29.83 in 10.0 mi SSE 15.0 mph - N/A   Clear
2:30 PM 35.6 °F 25.9 °F 28.4 °F 75% 29.81 in 10.0 mi SSE 16.1 mph 21.9 mph N/A   Clear
2:50 PM 35.6 °F 25.9 °F 28.4 °F 75% 29.79 in 10.0 mi SSE 16.1 mph 19.6 mph N/A   Clear
3:10 PM 37.4 °F 28.9 °F 30.2 °F 75% 29.79 in 10.0 mi SSE 13.8 mph - N/A   Scattered Clouds
3:30 PM 37.4 °F 28.9 °F 30.2 °F 75% 29.78 in 10.0 mi SSE 13.8 mph - N/A   Mostly Cloudy
3:50 PM 37.4 °F 28.2 °F 30.2 °F 75% 29.77 in 10.0 mi SSE 16.1 mph 21.9 mph N/A   Scattered Clouds
4:10 PM 37.4 °F 29.3 °F 30.2 °F 75% 29.76 in 10.0 mi SE 12.7 mph 17.3 mph N/A   Clear
4:30 PM 37.4 °F 29.3 °F 30.2 °F 75% 29.74 in 10.0 mi SE 12.7 mph 18.4 mph N/A   Clear
4:50 PM 37.4 °F 29.8 °F 30.2 °F 75% 29.73 in 10.0 mi SE 11.5 mph - N/A   Clear
5:10 PM 37.4 °F 28.9 °F 30.2 °F 75% 29.72 in 10.0 mi SE 13.8 mph - N/A   Clear
5:30 PM 37.4 °F 29.3 °F 32.0 °F 81% 29.71 in 10.0 mi SE 12.7 mph 18.4 mph N/A   Clear
5:50 PM 37.4 °F 30.3 °F 32.0 °F 81% 29.71 in 10.0 mi SE 10.4 mph 18.4 mph N/A   Clear
6:10 PM 39.2 °F 32.0 °F 32.0 °F 75% 29.71 in 10.0 mi SE 11.5 mph 18.4 mph N/A   Clear
6:30 PM 41.0 °F 33.9 °F 32.0 °F 70% 29.71 in 10.0 mi SSE 12.7 mph 17.3 mph N/A   Clear
6:50 PM 41.0 °F 33.9 °F 32.0 °F 70% 29.70 in 10.0 mi SSE 12.7 mph 20.7 mph N/A   Clear
7:10 PM 41.0 °F 33.9 °F 32.0 °F 70% 29.69 in 10.0 mi SSE 12.7 mph 17.3 mph N/A   Clear
7:30 PM 41.0 °F 33.9 °F 32.0 °F 70% 29.69 in 10.0 mi SSE 12.7 mph - N/A   Clear
7:50 PM 41.0 °F 34.3 °F 32.0 °F 70% 29.70 in 10.0 mi SSE 11.5 mph - N/A   Clear
8:10 PM 41.0 °F 33.9 °F 32.0 °F 70% 29.69 in 10.0 mi SSE 12.7 mph - N/A   Clear
8:30 PM 41.0 °F 33.1 °F 32.0 °F 70% 29.68 in 10.0 mi SSE 15.0 mph 20.7 mph N/A   Clear
8:50 PM 41.0 °F 32.8 °F 32.0 °F 70% 29.68 in 10.0 mi SSE 16.1 mph - N/A   Clear
9:10 PM 41.0 °F 33.9 °F 32.0 °F 70% 29.67 in 10.0 mi SSE 12.7 mph 20.7 mph N/A   Clear
9:30 PM 41.0 °F 33.1 °F 32.0 °F 70% 29.66 in 10.0 mi South 15.0 mph - N/A   Clear
9:50 PM 41.0 °F 32.8 °F 32.0 °F 70% 29.66 in 10.0 mi South 16.1 mph - N/A   Clear
10:10 PM 41.0 °F 33.1 °F 32.0 °F 70% 29.65 in 10.0 mi South 15.0 mph 23.0 mph N/A   Clear
10:30 PM 41.0 °F 31.9 °F 32.0 °F 70% 29.64 in 10.0 mi South 19.6 mph 24.2 mph N/A   Clear
10:50 PM 42.8 °F 34.3 °F 33.8 °F 70% 29.63 in 10.0 mi South 19.6 mph 25.3 mph N/A   Clear
11:10 PM 42.8 °F 34.3 °F 33.8 °F 70% 29.62 in 10.0 mi South 19.6 mph - N/A   Clear
11:30 PM 42.8 °F 34.8 °F 35.6 °F 76% 29.62 in 10.0 mi South 17.3 mph 23.0 mph N/A   Clear
11:50 PM 42.8 °F 34.5 °F 35.6 °F 76% 29.62 in 10.0 mi South 18.4 mph 25.3 mph N/A   Clear